Other Public Products
Issued by NWS Charleston, SC

Home | Current Version | Previous Version | Text Only | Print | Product List | Glossary On
Versions: 1 2 3 4 5 6 7 8 9 10 11 12 13 14 15 16 17 18 19 20 21 22 23 24 25 26 27 28 29 30 31 32 33 34 35 36 37 38 39 40 41 42 43 44 45 46 47 48 49 50
003
FPUS82 KCHS 220326
OPUCHS

TEST...KCHS/KSAV Gateway Observations...TEST
National Weather Service Charleston SC
1100 PM EDT THU SEP 21 2017

NOTE: "fair" indicates few or no clouds below 12,000 feet with no
significant weather and/or obstructions to visibility.

SCZ050-WAZ558-NCZ071-TXZ119-213-PAZ071-DCZ001-FLZ074-172-MI076-
NYZ176-178-MAZ016-IL014-TNZ027-NJZ106-GAZ044-MD014-220400-

...Gateway Observations for Charleston International...

CITY           SKY/WX    TMP DP  RH WIND       PRES   REMARKS
Chas Airport   PTCLDY    72  67  84 CALM      30.02R
Seattle        MOCLDY    59  45  59 SE3       29.98S
Charlotte      PTCLDY    76  67  73 CALM      30.07R
Dallas DFW     CLEAR     84  69  60 S14       29.90R
Dallas Love    PTCLDY    83  69  62 SE14      29.91R
Philladelphia  MOCLDY    74  62  66 E6        30.03S
Wash National  MOCLDY    76  72  87 CALM      30.05R
Baltimore      CLOUDY    68  67  96 W3        30.03R
Miami          MOCLDY    83  78  85 N5        29.93R HX  93
Detroit        CLOUDY    75  68  78 SE8       30.08F
Newark         MOCLDY    74  61  63 N9        30.02S
Laguardia      CLOUDY    73  65  75 NE8       30.01F
J F K          CLOUDY    73  60  63 N9        30.02S
Boston Logan   CLOUDY    66  53  63 NE21G30   30.03F
Ft. Lauderdale PTCLDY    83  77  82 E6        29.92R HX  92
Chicago O`Hare CLOUDY    80  69  69 SE6       30.01R
Chicago Midway MOCLDY    84  71  65 SE3       30.01R
Houston Bush   CLOUDY    75  72  90 E8        29.95R
Houston Hobby  CLOUDY    78  74  87 E3        29.94S
Nashville      CLEAR     74  71  91 SE3       30.06R
Atlanta        CLOUDY    76  66  71 CALM      30.05S

$$

GAZ044-118-TXZ119-213-NCZ071-DCZ001-MDZ014-506-PAZ021-071-NJZ106-
NYZ176-178-MAZ106-OHZ011-021-055-MIZ076-KYZ091-ILZ014-INZ047-
MNZ060-ONZ431-220400-

...Gateway Observations for Savannah International...

CITY           SKY/WX    TMP DP  RH WIND       PRES   REMARKS
Savannah Arpt  MOCLDY    76  72  87 CALM      30.02R
Atlanta        CLOUDY    76  66  71 CALM      30.05S
Charlotte      PTCLDY    76  67  73 CALM      30.07R
Dallas DFW     CLEAR     84  69  60 S14       29.90R
Houston Bush   CLOUDY    75  72  90 E8        29.95R
Wash National  MOCLDY    76  72  87 CALM      30.05R
Wash Dulles    MOCLDY    71  66  84 NW5       30.06R
Baltimore      CLOUDY    68  67  96 W3        30.03R
Philadelphia   MOCLDY    74  62  66 E6        30.03S
Newark         MOCLDY    74  61  63 N9        30.02S
Laguardia      CLOUDY    73  65  75 NE8       30.01F
J F K          CLOUDY    73  60  63 N9        30.02S
Boston         CLOUDY    66  53  63 NE21G30   30.03F
Pittsburg      PTCLDY    73  63  70 CALM      30.12R
Akron          PTCLDY    73  63  70 NE8       30.12R
Cleveland      PTCLDY    74  64  71 SE6       30.11S
Cincinnati     PTCLDY    73  71  93 CALM      30.08R
Columbus       PTCLDY    71  67  87 CALM      30.08S
Detroit        CLOUDY    75  68  78 SE8       30.08F
Chicago O`Hare CLOUDY    80  69  69 SE6       30.01R
Minneapolis    PTCLDY    78  68  71 SE10      29.82R
Indianapolis   PTCLDY    80  67  64 CALM      30.06S
Toronto Canada CLEAR     70  63  78 SE3       30.13S

$$




USA.gov is the U.S. government's official web portal to all federal, state and local government web resources and services.